Location: Beadle
(51.4667°N, 109.0000°W)
Time: 05:06:42
(UTC+00:00)

Altair - Pass Details

Date: 29 May 2022
Orbit: 1501 x 1682 km, 47.2° (Epoch: 30 June)

Event Time Altitude Azimuth Distance (km) Brightness Sun altitude
Rises 04:00:06 0° 283° (WNW) 4,918 11.2 -5.6°
Reaches altitude 10° 04:03:21 10° 278° (W) 3,939 10.5 -5.9°
Maximum altitude 04:13:00 51° 207° (SSW) 2,027 8.0 -6.9°
Drops below altitude 10° 04:22:35 10° 135° (SE) 3,912 8.9 -7.9°
Enters shadow 04:22:57 - 135° (SE) 4,017 9.0 -7.9°
Sets 04:25:49 0° 131° (SE) 4,882 - -8.2°
